Meteopurmerend
purmerend
Purmerend - Baaienwijk



My webcam  My webcam


Onweer radar Meer informatie blitzortung!


Regen radar Meer informatie rain snow radar


Bezoek onze andere website:

CandyAppleRed WebdesignWebdesign Purmerend Candy Apple Red

MeteopurmerendBlog

Template documentation
and downloads



We konden geen weer-waarchuwingen ophalen. Ga rechtstreeks naar de Meteoalarm site : www.meteoalarm.eu en controleer daar .

15 daagse weersverwachting Charlottenlund (DK)

  • Overzicht
  • Per uur
  • 15 dagen
  • Extra
  • Vergelijk
  • Kaarten
  • Dagkaart
  • Meer »
  • Info
  • Statistieken
  • Directe link
    Temp 6h Neerslag Wind  
 04:29     21:58    Daglengte: 17:29 Vandaag
08:00
19°
 
2
14:00
23°
 
4
20:00
22°
 
2
 04:29     21:58    Daglengte: 17:29 Morgen
02:00
18°
 
2
08:00
19°
 
2
14:00
25°
 
5
20:00
23°
 
6
 04:30     21:58    Daglengte: 17:28 Dinsdag 28 Jun
02:00
16°
6.5 mm
5
08:00
16°
8.3 mm
4
14:00
21°
 
4
20:00
20°
 
2
 04:31     21:57    Daglengte: 17:26 Woensdag 29 Jun
02:00
16°
 
2
Locatie info
Region: Hovedstaden
Latitude: 55.7533°N
Longitude: 12.5722°E
11 masl
Postcode: 2920
Temp/Neerslag /Baro Onweer/Dauwpunt
    Temp Baro 1h Neerslag Dauwpunt Wind UV Bewolking  
 04:29     21:58    Daglengte: 17:29 Vandaag
05:00
18°
1014.0 hPa
11%
16.4°
3
Windvlaag: -0.8 m/s
64%
06:00
18°
1014.2 hPa   15.9°
3
Windvlaag: -0.4 m/s
45%
07:00
18°
1014.3 hPa
14%
15.4°
3
Windvlaag: 0.6 m/s
25%
08:00
19°
1014.6 hPa   15.6°
2
Windvlaag: 0.9 m/s
23%
09:00
20°
1014.6 hPa   15.9°
3
Windvlaag: 1.6 m/s
22%
10:00
21°
1014.6 hPa   16.0°
3
Windvlaag: 2.9 m/s
28%
11:00
21°
1015.0 hPa   16.1°
4
Windvlaag: 4 m/s
29%
12:00
22°
1015.1 hPa   16.3°
4
Windvlaag: 4.1 m/s
9%
13:00
22°
1015.3 hPa   16.1°
4
Windvlaag: 5.7 m/s
28%
14:00
23°
1015.2 hPa   15.9°
4
Windvlaag: 6.8 m/s
27%
15:00
24°
1015.1 hPa   15.8°
4
Windvlaag: 6.8 m/s
58%
16:00
24°
1015.1 hPa
16%
16.4°
4
Windvlaag: 5.9 m/s
78%
17:00
24°
1015.2 hPa   17.2°
4
Windvlaag: 7 m/s
76%
18:00
23°
1015.1 hPa   17.1°
4
Windvlaag: 7.7 m/s
70%
19:00
23°
1014.9 hPa   16.2°
4
Windvlaag: 7.2 m/s
51%
20:00
22°
1015.3 hPa   16.1°
2
Windvlaag: 4.9 m/s
55%
21:00
21°
1015.3 hPa   16.1°
2
Windvlaag: 3.6 m/s
71%
22:00
20°
1015.7 hPa
15%
16.0°
2
Windvlaag: 0.8 m/s
36%
23:00
19°
1015.8 hPa
61%
16.0°
1
Windvlaag: 0.9 m/s
44%
 04:29     21:58    Daglengte: 17:29 Morgen
00:00
19°
1015.9 hPa
21%
17.0°
1
Windvlaag: 0.8 m/s
40%
01:00
19°
1015.6 hPa
19%
16.9°
1
Windvlaag: 0 m/s
27%
02:00
18°
1015.2 hPa
14%
16.8°
2
Windvlaag: -0.6 m/s
17%
03:00
18°
1014.9 hPa
14%
17.1°
2
Windvlaag: -0.5 m/s
12%
04:00
18°
1015.1 hPa
14%
17.2°
2
Windvlaag: -0.6 m/s
15%
05:00
18°
1014.7 hPa
14%
16.7°
2
Windvlaag: -0.2 m/s
10%
06:00
18°
1014.6 hPa
14%
16.5°
3
Windvlaag: 0.2 m/s
11%
07:00
18°
1014.5 hPa
14%
16.6°
2
Windvlaag: 0.2 m/s
5%
08:00
19°
1014.5 hPa
14%
16.1°
2
Windvlaag: 1.6 m/s
8%
09:00
20°
1014.5 hPa
15%
16.1°
2
Windvlaag: 2.7 m/s
8%
10:00
21°
1014.3 hPa
14%
16.4°
3
Windvlaag: 2.7 m/s
6%
11:00
22°
1014.3 hPa
14%
16.9°
3
Windvlaag: 2.7 m/s
6%
12:00
24°
1013.9 hPa
14%
17.2°
3
Windvlaag: 4.6 m/s
5%
13:00
25°
1013.6 hPa
14%
16.6°
4
Windvlaag: 5.8 m/s
14%
14:00
25°
1013.3 hPa
14%
16.7°
5
Windvlaag: 6.7 m/s
16%
15:00
25°
1013.1 hPa
15%
16.8°
5
Windvlaag: 7.3 m/s
15%
16:00
25°
1012.8 hPa
14%
16.7°
6
Windvlaag: 8.8 m/s
43%
17:00
25°
1012.7 hPa
14%
16.2°
5
Windvlaag: 10.3 m/s
85%
18:00
25°
1012.3 hPa
14%
16.4°
4
Windvlaag: 6.7 m/s
44%
19:00
24°
1012.6 hPa
14%
15.8°
5
Windvlaag: 4.4 m/s
29%
20:00
23°
1013.3 hPa
56%
14.8°
6
Windvlaag: -2.6 m/s
37%
21:00
22°
1014.1 hPa
78%
14.2°
7
Windvlaag: -3.7 m/s
57%
22:00
20°
1014.6 hPa 0.9 mm
80%
13.5°
7
Windvlaag: -6 m/s
60%
23:00
17°
1015.4 hPa 0.8 mm
100%
15.9°
5
Windvlaag: -6.4 m/s
97%
 04:30     21:58    Daglengte: 17:28 Dinsdag 28 Jun
00:00
17°
1015.3 hPa 2.1 mm
100%
15.1°
4
Windvlaag: -5.8 m/s
100%
01:00
17°
1015.4 hPa 1.3 mm
100%
15.1°
5
Windvlaag: -4.4 m/s
100%
02:00
16°
1015.4 hPa 1.3 mm
100%
15.0°
5
Windvlaag: -4.8 m/s
100%
03:00
16°
1015.8 hPa 1.2 mm
100%
14.9°
5
Windvlaag: -5 m/s
98%
04:00
16°
1016.2 hPa 2.5 mm
100%
14.6°
5
Windvlaag: -4.3 m/s
100%
05:00
15°
1016.7 hPa 2.8 mm
100%
13.9°
5
Windvlaag: -1.8 m/s
100%
06:00
15°
1017.6 hPa 1.8 mm
100%
13.2°
5
Windvlaag: -1.7 m/s
92%
07:00
16°
1018.0 hPa
98%
12.2°
4
Windvlaag: -1.4 m/s
81%
08:00
16°
1017.7 hPa
42%
12.0°
4
Windvlaag: 5.6 m/s
98%
09:00
17°
1017.9 hPa
22%
12.3°
4
Windvlaag: 6.2 m/s
47%
10:00
18°
1018.5 hPa
21%
12.1°
5
Windvlaag: 5.9 m/s
12%
11:00
19°
1019.0 hPa
21%
11.9°
4
Windvlaag: 6 m/s
13%
12:00
20°
1019.3 hPa
21%
11.6°
4
Windvlaag: 6.6 m/s
13%
13:00
20°
1019.5 hPa
21%
12.0°
4
Windvlaag: 6.4 m/s
12%
14:00
21°
1019.5 hPa
21%
11.9°
4
Windvlaag: 5.9 m/s
13%
15:00
21°
1019.5 hPa
21%
12.2°
4
Windvlaag: 5.4 m/s
15%
16:00
21°
1019.7 hPa
21%
12.6°
3
Windvlaag: 4.2 m/s
19%
17:00
21°
1019.8 hPa
21%
12.5°
3
Windvlaag: 3.3 m/s
18%
18:00
21°
1019.6 hPa
21%
12.0°
3
Windvlaag: 3.2 m/s
13%
19:00
21°
1019.5 hPa
21%
11.8°
3
Windvlaag: 3.1 m/s
4%
20:00
20°
1019.6 hPa
21%
12.0°
2
Windvlaag: 2.4 m/s
2%
21:00
19°
1019.8 hPa
21%
12.2°
2
Windvlaag: 1.4 m/s
0%
22:00
18°
1020.0 hPa
21%
12.7°
1
Windvlaag: 1 m/s
0%
23:00
17°
1020.0 hPa
21%
12.0°
1
Windvlaag: 1 m/s
26%
 04:31     21:57    Daglengte: 17:26 Woensdag 29 Jun
00:00
17°
1020.1 hPa
21%
11.8°
1
Windvlaag: 1.1 m/s
9%
01:00
16°
1020.0 hPa
21%
11.9°
1
Windvlaag: 1.5 m/s
18%
02:00
16°
1019.8 hPa
21%
11.9°
2
Windvlaag: 2.3 m/s
0%
03:00
15°
1020.2 hPa 1.9 mm
100%
11.7°
3
Windvlaag: 2.7 m/s
4%
04:00
14°
1019.5 hPa 1.9 mm
100%
12.0°
3
Windvlaag: 2.9 m/s
0%
Temp/Neerslag /Baro Onweer/Dauwpunt
    Temp Baro Neerslag Dauwpunt Wind Bewolking  
 04:29     21:58    Daglengte: 17:29 Vandaag
05:00
18°
1014.0 hPa   16.4°
3
64%
08:00
19°
1014.6 hPa   15.6°
2
23%
11:00
21°
1015.0 hPa   16.1°
4
29%
14:00
23°
1015.2 hPa   15.9°
4
27%
17:00
24°
1015.2 hPa   17.2°
4
76%
20:00
22°
1015.3 hPa   16.1°
2
55%
23:00
19°
1015.8 hPa   16.0°
1
44%
 04:29     21:58    Daglengte: 17:29 Morgen
02:00
18°
1015.2 hPa   16.8°
2
17%
05:00
18°
1014.7 hPa   16.7°
2
10%
08:00
19°
1014.5 hPa   16.1°
2
8%
11:00
22°
1014.3 hPa   16.9°
3
6%
14:00
25°
1013.3 hPa   16.7°
5
16%
17:00
25°
1012.7 hPa   16.2°
5
85%
20:00
23°
1013.3 hPa   14.8°
6
37%
23:00
17°
1015.4 hPa 1.7 mm 15.9°
5
97%
 04:30     21:58    Daglengte: 17:28 Dinsdag 28 Jun
02:00
16°
1015.4 hPa 4.7 mm 15.0°
5
100%
05:00
15°
1016.7 hPa 6.5 mm 13.9°
5
100%
08:00
16°
1017.7 hPa 1.8 mm 12.0°
4
98%
11:00
19°
1019.0 hPa   11.9°
4
13%
14:00
21°
1019.5 hPa   11.9°
4
13%
17:00
21°
1019.8 hPa   12.5°
3
18%
20:00
20°
1019.6 hPa   12.0°
2
2%
23:00
17°
1020.0 hPa   12.0°
1
26%
 04:31     21:57    Daglengte: 17:26 Woensdag 29 Jun
02:00
16°
1019.8 hPa   11.9°
2
0%
05:00
14°
1020.1 hPa 5.7 mm 12.4°
3
1%
08:00
17°
1020.3 hPa 5.7 mm 11.8°
3
0%
11:00
20°
1021.3 hPa 13.6 mm -12.1°
2
8%
14:00
23°
1020.0 hPa 13.6 mm -12.8°
1
23%
17:00
23°
1019.5 hPa 13.6 mm -8.1°
2
16%
20:00
21°
1018.6 hPa 13.6 mm -6.3°
1
9%
23:00
18°
1019.0 hPa 13.6 mm -6.0°
1
8%
 04:32     21:57    Daglengte: 17:25 Donderdag 30 Jun
02:00
16°
1018.6 hPa 13.6 mm -7.0°
3
2%
05:00
16°
1017.2 hPa 13.6 mm -6.8°
3
13%
08:00
17°
1017.1 hPa 13.7 mm -7.4°
4
16%
11:00
19°
1016.7 hPa 13.7 mm -6.8°
5
15%
14:00
19°
1015.9 hPa 7.0 mm -5.2°
3
22%
17:00
19°
1015.0 hPa 13.8 mm -4.6°
3
26%
20:00
19°
1013.8 hPa 13.9 mm -3.6°
3
26%
23:00
18°
1012.9 hPa 13.9 mm -2.8°
2
26%
 04:32     21:56    Daglengte: 17:24 Vrijdag 01 Jul
02:00
18°
1012.1 hPa 13.9 mm -2.6°
1
24%
05:00
18°
1011.1 hPa 13.9 mm -3.0°
2
16%
08:00
20°
1011.0 hPa 13.9 mm -3.8°
3
23%
11:00
22°
1010.7 hPa 13.9 mm -4.5°
2
25%
14:00
21°
1010.3 hPa 8.8 mm -1.9°
3
26%
17:00
20°
1011.2 hPa 10.8 mm -1.8°
3
26%
20:00
19°
1011.0 hPa 11.0 mm -2.0°
3
22%
23:00
17°
1013.2 hPa 10.5 mm -3.9°
5
22%
 04:33     21:56    Daglengte: 17:23 Zaterdag 02 Jul
02:00
16°
1014.1 hPa 10.4 mm -5.7°
5
15%
05:00
14°
1015.3 hPa 20.4 mm 13.0°
4
0%
08:00
17°
1016.6 hPa 20.4 mm 11.5°
5
0%
11:00
20°
1016.8 hPa 20.4 mm 10.0°
5
1%
14:00
18°
1018.0 hPa 20.6 mm 9.0°
4
1%
17:00
21°
1016.9 hPa 20.6 mm 8.0°
4
0%
20:00
19°
1016.8 hPa 20.7 mm 11.7°
4
0%
23:00
16°
1017.1 hPa 20.7 mm 12.2°
4
0%
 04:34     21:55    Daglengte: 17:21 Zondag 03 Jul
02:00
15°
1017.1 hPa 41.4 mm 11.6°
4
0%
08:00
18°
1015.7 hPa 41.7 mm 12.4°
6
1%
14:00
21°
1014.7 hPa 42.8 mm 12.1°
8
0%
20:00
19°
1013.3 hPa 45.5 mm 11.8°
5
1%
 04:35     21:55    Daglengte: 17:20 Maandag 04 Jul
02:00
14°
1012.8 hPa 45.9 mm 11.2°
5
1%
08:00
15°
1010.6 hPa 46.3 mm 11.9°
6
0%
14:00
18°
1009.0 hPa 49.5 mm 11.3°
8
1%
20:00
17°
1010.5 hPa 52.7 mm 10.2°
8
0%
 04:36     21:54    Daglengte: 17:18 Dinsdag 05 Jul
02:00
15°
1011.8 hPa 53.0 mm 9.5°
8
1%
08:00
15°
1012.5 hPa 53.7 mm 10.7°
9
1%
14:00
18°
1014.8 hPa 54.2 mm 10.6°
8
1%
20:00
18°
1015.4 hPa 54.6 mm 12.0°
7
1%
 04:37     21:53    Daglengte: 17:16 Woensdag 06 Jul
02:00
15°
1016.5 hPa 0.3 mm 12.1°
3
46%
08:00
16°
1016.5 hPa 0.2 mm 12.5°
3
60%
14:00
19°
1016.7 hPa 0.5 mm 13.0°
3
58%
20:00
19°
1015.9 hPa 0.4 mm 13.5°
3
55%
 04:38     21:53    Daglengte: 17:15 Donderdag 07 Jul
02:00
16°
1015.9 hPa 0.2 mm 12.6°
2
50%
08:00
16°
1015.5 hPa 0.3 mm 12.8°
2
50%
14:00
20°
1015.6 hPa 0.6 mm 13.6°
3
56%
20:00
19°
1015.0 hPa 0.8 mm 14.0°
2
52%
 04:40     21:52    Daglengte: 17:12 Vrijdag 08 Jul
02:00
16°
1015.2 hPa 0.8 mm 12.6°
2
51%
08:00
16°
1014.8 hPa 0.9 mm 13.1°
3
59%
14:00
19°
1014.8 hPa 0.3 mm 13.3°
3
68%
20:00
19°
1014.4 hPa 0.8 mm 13.5°
3
52%
 04:41     21:51    Daglengte: 17:10 Zaterdag 09 Jul
02:00
16°
1014.6 hPa 0.6 mm 12.5°
3
47%
08:00
16°
1014.5 hPa 0.3 mm 12.5°
3
51%
14:00
20°
1014.1 hPa 0.6 mm 13.1°
4
49%
20:00
19°
1013.3 hPa   13.3°
3
52%
 04:42     21:50    Daglengte: 17:08 Zondag 10 Jul
02:00
16°
1013.1 hPa 0.3 mm 12.5°
2
40%
08:00
17°
1012.4 hPa 0.3 mm 12.9°
3
57%
14:00
19°
1012.2 hPa   12.9°
3
60%
20:00
18°
1011.8 hPa 0.8 mm 12.9°
3
52%
 04:43     21:49    Daglengte: 17:06 Maandag 11 Jul
02:00
16°
1012.0 hPa 0.7 mm 12.1°
4
37%
  CAPE Lifted Index Hail Supercell Tornado SRH 3km CL BTM PRES CL TOP PRES Swiss DWD icon SMHI TS
 04:29     21:58    Daglengte: 17:29 Vandaag
05:00 0 J/kg -1.5 K 0 % 0 % 0 % 0 m²/s² 0 0 -1.14 3
06:00 0 J/kg -1.8 K 0 % 0 % 0 % 0 m²/s² 0 0 -1.26 3
07:00 0 J/kg -1.3 K 0 % 0 % 0 % 0 m²/s² 0 0 -0.85 3
08:00 0 J/kg -1.7 K 0 % 0 % 0 % 0 m²/s² 0 0 -1.07 2
09:00 0 J/kg -1.5 K 0 % 0 % 0 % 0 m²/s² 0 0 -0.84 2
10:00 275 J/kg -1.8 K 0 % 0 % 0 % 0 m²/s² 0 0 -1.23 2
11:00 424 J/kg -2.2 K 0 % 0 % 0 % 0 m²/s² 0 0 -1.45 3
12:00 498 J/kg -2.3 K 0 % 0 % 0 % 0 m²/s² 0 0 -1.1 2
13:00 496 J/kg -2.3 K 0 % 0 % 0 % 0 m²/s² 0 0 -0.77 3
14:00 432 J/kg -2.1 K 0 % 0 % 0 % 0 m²/s² 0 0 -0.72 2
15:00 383 J/kg -1.9 K 0 % 0 % 0 % 0 m²/s² 0 0 -0.46 3
16:00 359 J/kg -1.7 K 0 % 0 % 0 % 0 m²/s² 0 0 -0.32 3
17:00 46 J/kg -0.7 K 0 % 0 % 0 % 0 m²/s² 0 0 0.02 3
18:00 22 J/kg -0.8 K 0 % 0 % 0 % 0 m²/s² 0 0 0.37 3
19:00 68 J/kg -1.5 K 0 % 0 % 0 % 0 m²/s² 0 0 0.36 3
20:00 271 J/kg -2.2 K 0 % 0 % 0 % 0 m²/s² 0 0 -1.03 3
21:00 144 J/kg -2.5 K 0 % 0 % 0 % 0 m²/s² 0 0 -1.6 3
22:00 49 J/kg -1.4 K 0 % 0 % 0 % 0 m²/s² 0 0 -0.59 3
23:00 0 J/kg -0.4 K 0 % 0 % 0 % 0 m²/s² 0 0 0.23 3
 04:29     21:58    Daglengte: 17:29 Morgen
00:00 0 J/kg -1.5 K 0 % 0 % 0 % 0 m²/s² 0 0 -0.63 3
01:00 0 J/kg -1.6 K 0 % 0 % 0 % 0 m²/s² 0 0 0.17 3
02:00 0 J/kg -0.4 K 0 % 0 % 0 % 0 m²/s² 0 0 0.62 2
03:00 0 J/kg -0.5 K 0 % 0 % 0 % 0 m²/s² 0 0 0.22 1
04:00 0 J/kg -1.2 K 0 % 0 % 0 % 0 m²/s² 0 0 -0.66 1
05:00 0 J/kg -1.2 K 0 % 0 % 0 % 0 m²/s² 0 0 -0.18 0
06:00 0 J/kg -1.6 K 0 % 0 % 0 % 0 m²/s² 0 0 -0.1 1
07:00 0 J/kg -1.1 K 0 % 0 % 0 % 0 m²/s² 0 0 0.64 0
08:00 0 J/kg -1.3 K 0 % 0 % 0 % 0 m²/s² 0 0 0.95 0
09:00 5 J/kg -1.2 K 0 % 0 % 0 % 0 m²/s² 0 0 1.2 1
10:00 66 J/kg -1.2 K 0 % 0 % 0 % 0 m²/s² 0 0 1.83 0
11:00 235 J/kg -1.2 K 0 % 0 % 0 % 0 m²/s² 0 0 1.59 1
12:00 321 J/kg -2.1 K 0 % 0 % 0 % 0 m²/s² 0 0 1.2 1
13:00 525 J/kg -2.3 K 0 % 0 % 0 % 0 m²/s² 0 0 0.73 2
14:00 542 J/kg -2.9 K 0 % 0 % 0 % 0 m²/s² 0 0 -0.11 2
15:00 607 J/kg -2.8 K 0 % 0 % 0 % 0 m²/s² 0 0 -1.36 0
16:00 542 J/kg -1.7 K 0 % 0 % 0 % 0 m²/s² 0 0 -0.74 3
17:00 412 J/kg -1.4 K 0 % 0 % 0 % 0 m²/s² 0 0 -1.04 3
18:00 0 J/kg -1.7 K 0 % 0 % 0 % 0 m²/s² 0 0 -1.16 3
19:00 601 J/kg -1.8 K 0 % 0 % 0 % 0 m²/s² 0 0 -0.12 3
20:00 826 J/kg -2.1 K 0 % 0 % 0 % 0 m²/s² 0 0 0.18 3
21:00 289 J/kg -0.9 K 0 % 0 % 0 % 0 m²/s² 0 0 1.11 3
22:00 1 J/kg 0.8 K 0 % 0 % 0 % 0 m²/s² 0 0 2.87 3
23:00 3 J/kg 1.4 K 0 % 0 % 0 % 0 m²/s² 0 0 3.41 80
 04:30     21:58    Daglengte: 17:28 Dinsdag 28 Jun
00:00 0 J/kg 1.6 K 0 % 0 % 0 % 0 m²/s² 0 0 2.17 3
01:00 1 J/kg 2.6 K 0 % 0 % 0 % 0 m²/s² 0 0 3.26 80
02:00 2 J/kg 2.8 K 0 % 0 % 0 % 0 m²/s² 0 0 2.8 80
03:00 2 J/kg 2.5 K 0 % 0 % 0 % 0 m²/s² 0 0 2.62 80
04:00 5 J/kg 3.3 K 0 % 0 % 0 % 0 m²/s² 0 0 4.02 81
05:00 4 J/kg 4.3 K 0 % 0 % 0 % 0 m²/s² 0 0 5.41 63
06:00 3 J/kg 3.9 K 0 % 0 % 0 % 0 m²/s² 0 0 5.19 80
07:00 0 J/kg 4.8 K 0 % 0 % 0 % 0 m²/s² 0 0 7.35 3
08:00 3 J/kg 5.3 K 0 % 0 % 0 % 0 m²/s² 0 0 9.32 3
09:00 2 J/kg 6.2 K 0 % 0 % 0 % 0 m²/s² 0 0 11.51 3
10:00 3 J/kg 5.9 K 0 % 0 % 0 % 0 m²/s² 0 0 11.06 2
11:00 13 J/kg 6.7 K 0 % 0 % 0 % 0 m²/s² 0 0 12.76 1
12:00 14 J/kg 8.1 K 0 % 0 % 0 % 0 m²/s² 0 0 15.18 1
13:00 21 J/kg 8.9 K 0 % 0 % 0 % 0 m²/s² 0 0 17.45 1
14:00 21 J/kg 8.8 K 0 % 0 % 0 % 0 m²/s² 0 0 17.41 1
15:00 19 J/kg 8.5 K 0 % 0 % 0 % 0 m²/s² 0 0 17.56 0
16:00 28 J/kg 8.1 K 0 % 0 % 0 % 0 m²/s² 0 0 17.19 0
17:00 13 J/kg 8.0 K 0 % 0 % 0 % 0 m²/s² 0 0 17.15 0
18:00 2 J/kg 8.3 K 0 % 0 % 0 % 0 m²/s² 0 0 16.76 0
19:00 0 J/kg 8.6 K 0 % 0 % 0 % 0 m²/s² 0 0 17.09 0
20:00 0 J/kg 8.5 K 0 % 0 % 0 % 0 m²/s² 0 0 16.42 0
21:00 0 J/kg 8.3 K 0 % 0 % 0 % 0 m²/s² 0 0 15.71 0
22:00 0 J/kg 8.6 K 0 % 0 % 0 % 0 m²/s² 0 0 15.53 0
23:00 0 J/kg 8.5 K 0 % 0 % 0 % 0 m²/s² 0 0 15.01 3
 04:31     21:57    Daglengte: 17:26 Woensdag 29 Jun
00:00 0 J/kg 8.9 K 0 % 0 % 0 % 0 m²/s² 0 0 15.05 2
01:00 0 J/kg 8.9 K 0 % 0 % 0 % 0 m²/s² 0 0 14.72 3
02:00 0 J/kg 9.2 K 0 % 0 % 0 % 0 m²/s² 0 0 14.72 1
03:00 0 J/kg 9.2 K 0 % 0 % 0 % 0 m²/s² 0 0 14.72
04:00 0 J/kg 9.8 K 0 % 0 % 0 % 0 m²/s² 0 0 15.35
Temp Baro Wind Neerslag
  EWN Forecast EWN WRFDA DWD ICON FMI HIRLAM MET Norway GFSWXSIM
 04:29     21:58    Daglengte: 17:29 Vandaag
05:00 17.8° 1014.0 hPa 3.0 m/s 0.0 mm 15.5° 1014.4 hPa 2.7 m/s 0.0 mm 18.2° 1014.2 hPa 1.7 m/s -2.0 mm 17.0° 1013.9 hPa 3.2 m/s 0.0 mm 17.0° 1013.8 hPa 1.9 m/s 18.8° 1013.0 hPa 2.0 m/s 0.3 mm
08:00 18.9° 1014.6 hPa 2.2 m/s 0.0 mm 19.1° 1014.5 hPa 2.9 m/s 0.0 mm 19.3° 1015.0 hPa 1.9 m/s 0.0 mm 18.9° 1014.2 hPa 4.1 m/s 0.0 mm 19.0° 1014.7 hPa 3.2 m/s 20.0° 1014.0 hPa 3.0 m/s 0.5 mm
11:00 21.4° 1015.0 hPa 3.7 m/s 0.0 mm 23.2° 1015.3 hPa 3.9 m/s 0.0 mm 21.6° 1015.4 hPa 2.1 m/s 0.0 mm 22.3° 1014.9 hPa 5.3 m/s 0.0 mm 23.3° 1015.1 hPa 3.6 m/s 22.5° 1015.0 hPa 4.0 m/s 0.5 mm
14:00 23.1° 1015.2 hPa 4.2 m/s 0.0 mm 25.0° 1015.2 hPa 4.9 m/s 0.0 mm 24.5° 1015.2 hPa 2.5 m/s 0.0 mm 22.9° 1015.3 hPa 4.2 m/s 0.0 mm 24.8° 1015.1 hPa 4.1 m/s 27.3° 1015.0 hPa 4.0 m/s 0.0 mm
17:00 23.8° 1015.2 hPa 4.3 m/s 0.0 mm 23.2° 1015.0 hPa 5.8 m/s 0.0 mm 24.0° 1015.2 hPa 2.1 m/s 0.0 mm 24.0° 1015.4 hPa 4.4 m/s 0.0 mm 24.7° 1015.3 hPa 3.6 m/s 26.3° 1015.0 hPa 4.0 m/s 0.7 mm
20:00 21.8° 1015.3 hPa 2.4 m/s 0.0 mm 23.9° 1015.0 hPa 3.8 m/s 0.0 mm 22.2° 1015.3 hPa 1.5 m/s 0.0 mm 21.6° 1015.4 hPa 3.6 m/s 0.0 mm 20.2° 1016.1 hPa 2.6 m/s 22.2° 1016.0 hPa 2.0 m/s 1.6 mm
23:00 19.2° 1015.8 hPa 0.8 m/s 0.0 mm 22.0° 1015.5 hPa 0.9 m/s 1.0 mm 19.7° 1015.9 hPa 0.6 m/s 0.0 mm 18.4° 1016.3 hPa 1.5 m/s 0.0 mm 18.9° 1017.0 hPa 1.4 m/s 20.5° 1016.0 hPa 1.0 m/s 1.0 mm
 04:29     21:58    Daglengte: 17:29 Morgen
02:00 18.5° 1015.2 hPa 1.6 m/s 0.0 mm 19.8° 1015.1 hPa 0.5 m/s 1.8 mm 18.6° 1015.1 hPa 1.2 m/s 0.0 mm 17.5° 1016.1 hPa 1.8 m/s 0.0 mm 18.1° 1016.2 hPa 2.3 m/s 19.8° 1016.0 hPa 2.0 m/s 0.0 mm
05:00 18.0° 1014.7 hPa 2.4 m/s 0.0 mm 18.1° 1013.9 hPa 3.8 m/s 1.8 mm 18.1° 1014.8 hPa 1.7 m/s 0.0 mm 17.0° 1015.4 hPa 2.8 m/s 0.0 mm 17.7° 1015.8 hPa 2.6 m/s 19.0° 1015.0 hPa 2.0 m/s 0.0 mm
08:00 18.6° 1014.5 hPa 2.4 m/s 0.0 mm 20.4° 1013.6 hPa 2.8 m/s 1.8 mm 19.4° 1014.7 hPa 2.0 m/s 0.0 mm 18.2° 1015.1 hPa 3.2 m/s 0.0 mm 20.5° 1014.8 hPa 2.6 m/s 21.7° 1015.0 hPa 3.0 m/s 0.2 mm
11:00 22.4° 1014.3 hPa 2.6 m/s 0.0 mm 24.6° 1013.1 hPa 2.9 m/s 1.8 mm 23.2° 1014.7 hPa 2.7 m/s 0.0 mm 22.5° 1014.5 hPa 3.2 m/s 0.0 mm 25.0° 1014.7 hPa 4.7 m/s 25.4° 1015.0 hPa 4.0 m/s 0.0 mm
14:00 24.9° 1013.3 hPa 4.8 m/s 0.0 mm 26.5° 1011.2 hPa 7.0 m/s 1.8 mm 26.7° 1013.8 hPa 3.0 m/s 0.0 mm 24.8° 1013.5 hPa 5.9 m/s 0.0 mm 24.4° 1014.1 hPa 5.8 m/s 28.6° 1014.0 hPa 5.0 m/s 0.0 mm
17:00 25.3° 1012.7 hPa 5.2 m/s 0.0 mm 26.7° 1009.1 hPa 7.2 m/s 2.2 mm 26.1° 1013.2 hPa 2.8 m/s 0.0 mm 25.4° 1012.5 hPa 6.9 m/s 0.0 mm 25.3° 1013.5 hPa 4.8 m/s 27.8° 1013.0 hPa 5.0 m/s 0.0 mm
20:00 23.4° 1013.3 hPa 6.3 m/s 0.0 mm 23.6° 1010.9 hPa 4.9 m/s 5.1 mm 23.9° 1013.9 hPa 2.4 m/s 0.0 mm 24.3° 1011.6 hPa 7.2 m/s 0.0 mm 21.2° 1014.3 hPa 2.6 m/s 21.7° 1014.0 hPa 3.0 m/s 1.3 mm
23:00 17.4° 1015.4 hPa 4.8 m/s 1.7 mm 17.0° 1013.6 hPa 4.3 m/s 5.3 mm 19.4° 1015.4 hPa 2.9 m/s 0.5 mm 18.7° 1016.2 hPa 2.3 m/s 18.9° 1015.0 hPa 3.0 m/s 4.3 mm
 04:30     21:58    Daglengte: 17:28 Dinsdag 28 Jun
02:00 16.5° 1015.4 hPa 5.0 m/s 4.7 mm 16.4° 1014.8 hPa 4.6 m/s 5.3 mm 17.4° 1015.1 hPa 3.5 m/s 1.1 mm 17.8° 1015.8 hPa 2.4 m/s 18.6° 1016.0 hPa 3.0 m/s 4.6 mm
05:00 15.3° 1016.7 hPa 5.1 m/s 6.5 mm 15.9° 1016.0 hPa 5.3 m/s 5.7 mm 15.1° 1016.4 hPa 4.5 m/s 7.0 mm 16.0° 1017.5 hPa 4.5 m/s 18.2° 1017.0 hPa 4.0 m/s 3.0 mm
08:00 15.8° 1017.7 hPa 4.1 m/s 1.8 mm 16.1° 1017.6 hPa 4.4 m/s 5.7 mm 15.7° 1017.7 hPa 4.1 m/s 1.8 mm 15.8° 1019.3 hPa 4.5 m/s 18.4° 1019.0 hPa 5.0 m/s 0.5 mm
11:00 19.0° 1019.0 hPa 4.2 m/s 0.0 mm 19.0° 1018.3 hPa 4.6 m/s 5.7 mm 18.9° 1019.2 hPa 4.2 m/s 0.0 mm 19.2° 1020.3 hPa 4.0 m/s 20.4° 1020.0 hPa 4.0 m/s 0.0 mm
14:00 21.0° 1019.5 hPa 4.2 m/s 0.0 mm 20.1° 1019.1 hPa 4.6 m/s 5.7 mm 21.2° 1019.6 hPa 4.1 m/s 0.0 mm 20.4° 1021.0 hPa 3.9 m/s 22.7° 1020.0 hPa 3.0 m/s 0.0 mm
17:00 21.3° 1019.8 hPa 3.2 m/s 0.0 mm 20.3° 1019.4 hPa 2.8 m/s 5.7 mm 21.5° 1019.9 hPa 3.3 m/s 0.0 mm 20.7° 1021.0 hPa 3.1 m/s 23.8° 1021.0 hPa 2.0 m/s 0.0 mm
20:00 20.0° 1019.6 hPa 2.3 m/s 0.0 mm 19.4° 1019.0 hPa 2.1 m/s 5.7 mm 20.1° 1019.8 hPa 2.3 m/s 0.0 mm 19.9° 1021.0 hPa 0.9 m/s 22.7° 1021.0 hPa 1.0 m/s 0.0 mm
23:00 17.0° 1020.0 hPa 1.4 m/s 0.0 mm 16.7° 1019.8 hPa 1.0 m/s 5.7 mm 17.1° 1020.0 hPa 1.5 m/s 0.0 mm 16.8° 1021.8 hPa 0.7 m/s 17.9° 1021.0 hPa 0.0 m/s 0.0 mm
 04:31     21:57    Daglengte: 17:26 Woensdag 29 Jun
02:00 15.9° 1019.8 hPa 1.7 m/s 0.0 mm 15.2° 1020.0 hPa 2.2 m/s 5.7 mm 16.0° 1019.7 hPa 1.5 m/s 0.0 mm 15.8° 1021.6 hPa 1.1 m/s 15.4° 1021.0 hPa 1.0 m/s 0.0 mm
05:00 14.2° 1020.1 hPa 3.2 m/s 5.7 mm 14.2° 1020.1 hPa 3.2 m/s 5.7 mm 14.8° 1021.2 hPa 1.3 m/s 14.3° 1021.0 hPa 1.0 m/s 0.0 mm
08:00 17.2° 1020.3 hPa 2.6 m/s 5.7 mm 17.2° 1020.3 hPa 2.6 m/s 5.7 mm 17.5° 1021.2 hPa 1.7 m/s 16.1° 1021.0 hPa 2.0 m/s 0.0 mm
11:00 20.1° 1021.3 hPa 1.9 m/s 13.6 mm 20.9° 1021.0 hPa 1.9 m/s 13.6 mm 19.8° 1022.0 hPa 2.0 m/s 0.0 mm
14:00 23.1° 1020.0 hPa 1.1 m/s 13.6 mm 23.0° 1020.0 hPa 1.3 m/s 13.6 mm 23.4° 1020.0 hPa 1.0 m/s 0.0 mm
17:00 23.3° 1019.5 hPa 2.5 m/s 13.6 mm 23.0° 1019.3 hPa 3.9 m/s 13.6 mm 24.2° 1020.0 hPa 2.0 m/s 0.0 mm
20:00 21.2° 1018.6 hPa 1.1 m/s 13.6 mm 20.6° 1018.5 hPa 1.5 m/s 13.6 mm 22.9° 1019.0 hPa 1.0 m/s 0.0 mm
23:00 18.2° 1019.0 hPa 1.3 m/s 13.6 mm 17.9° 1019.0 hPa 2.1 m/s 13.6 mm 19.2° 1019.0 hPa 1.0 m/s 0.0 mm
 04:32     21:57    Daglengte: 17:25 Donderdag 30 Jun
02:00 16.4° 1018.6 hPa 2.9 m/s 13.6 mm 16.1° 1018.4 hPa 2.8 m/s 13.6 mm 17.4° 1019.0 hPa 3.0 m/s 0.0 mm
05:00 16.1° 1017.2 hPa 3.2 m/s 13.6 mm 15.9° 1017.8 hPa 3.7 m/s 13.6 mm 16.5° 1017.0 hPa 3.0 m/s 0.0 mm
08:00 17.2° 1017.1 hPa 4.1 m/s 13.7 mm 16.6° 1017.3 hPa 4.2 m/s 13.7 mm 18.9° 1017.0 hPa 4.0 m/s 0.0 mm
11:00 18.6° 1016.7 hPa 5.0 m/s 13.7 mm 17.3° 1016.6 hPa 5.0 m/s 13.7 mm 22.7° 1017.0 hPa 5.0 m/s 0.0 mm
14:00 19.2° 1015.9 hPa 3.5 m/s 7.0 mm 17.4° 1015.9 hPa 3.3 m/s 13.8 mm 24.7° 1016.0 hPa 4.0 m/s 0.3 mm
17:00 19.1° 1015.0 hPa 3.0 m/s 13.8 mm 17.3° 1015.0 hPa 3.0 m/s 13.8 mm 24.5° 1015.0 hPa 3.0 m/s 0.0 mm
20:00 18.7° 1013.8 hPa 2.8 m/s 13.9 mm 17.4° 1013.7 hPa 2.7 m/s 13.9 mm 22.8° 1014.0 hPa 3.0 m/s 0.0 mm
23:00 18.4° 1012.9 hPa 1.9 m/s 13.9 mm 17.6° 1012.8 hPa 1.9 m/s 13.9 mm 20.6° 1013.0 hPa 2.0 m/s 0.0 mm
 04:32     21:56    Daglengte: 17:24 Vrijdag 01 Jul
02:00 18.4° 1012.1 hPa 1.1 m/s 13.9 mm 18.0° 1012.4 hPa 1.4 m/s 13.9 mm 19.7° 1012.0 hPa 1.0 m/s 0.0 mm
05:00 17.8° 1011.1 hPa 2.1 m/s 13.9 mm 17.5° 1011.3 hPa 2.3 m/s 13.9 mm 18.9° 1011.0 hPa 2.0 m/s 0.0 mm
08:00 19.7° 1011.0 hPa 2.7 m/s 13.9 mm 19.3° 1011.2 hPa 2.6 m/s 13.9 mm 21.0° 1011.0 hPa 3.0 m/s 0.0 mm
11:00 22.1° 1010.7 hPa 1.8 m/s 13.9 mm 21.9° 1010.5 hPa 1.8 m/s 13.9 mm 22.9° 1011.0 hPa 2.0 m/s 0.0 mm
14:00 21.3° 1010.3 hPa 3.1 m/s 8.8 mm 20.9° 1011.1 hPa 3.4 m/s 15.7 mm 22.7° 1010.0 hPa 3.0 m/s 1.8 mm
17:00 19.9° 1011.2 hPa 3.3 m/s 10.8 mm 19.6° 1011.8 hPa 4.1 m/s 18.2 mm 20.6° 1011.0 hPa 3.0 m/s 3.3 mm
20:00 19.4° 1011.0 hPa 2.9 m/s 11.0 mm 19.4° 1011.1 hPa 2.9 m/s 19.7 mm 19.5° 1011.0 hPa 3.0 m/s 2.3 mm
23:00 17.4° 1013.2 hPa 5.3 m/s 10.5 mm 17.2° 1013.7 hPa 6.3 m/s 20.3 mm 18.1° 1013.0 hPa 5.0 m/s 0.7 mm
 04:33     21:56    Daglengte: 17:23 Zaterdag 02 Jul
02:00 16.2° 1014.1 hPa 5.4 m/s 10.4 mm 16.0° 1014.5 hPa 5.2 m/s 20.4 mm 16.9° 1014.0 hPa 6.0 m/s 0.3 mm
05:00 14.5° 1015.3 hPa 4.0 m/s 20.4 mm 14.5° 1015.3 hPa 4.0 m/s 20.4 mm
08:00 17.1° 1016.6 hPa 4.9 m/s 20.4 mm 17.1° 1016.6 hPa 4.9 m/s 20.4 mm
11:00 19.8° 1016.8 hPa 4.6 m/s 20.4 mm 19.8° 1016.8 hPa 4.6 m/s 20.4 mm
14:00 18.5° 1018.0 hPa 3.7 m/s 20.6 mm 18.5° 1018.0 hPa 3.7 m/s 20.6 mm
17:00 21.2° 1016.9 hPa 3.6 m/s 20.6 mm 21.2° 1016.9 hPa 3.6 m/s 20.6 mm
20:00 19.3° 1016.8 hPa 4.2 m/s 20.7 mm 19.3° 1016.8 hPa 4.2 m/s 20.7 mm
23:00 16.3° 1017.1 hPa 4.0 m/s 20.7 mm 16.3° 1017.1 hPa 4.0 m/s 20.7 mm
 04:34     21:55    Daglengte: 17:21 Zondag 03 Jul
02:00 15.1° 1017.1 hPa 3.6 m/s 20.7 mm 15.1° 1017.1 hPa 3.6 m/s 20.7 mm
08:00 17.8° 1015.7 hPa 6.2 m/s 20.9 mm 17.8° 1015.7 hPa 6.2 m/s 20.9 mm
14:00 20.8° 1014.7 hPa 8.0 m/s 21.8 mm 20.8° 1014.7 hPa 8.0 m/s 21.8 mm
20:00 18.9° 1013.3 hPa 5.2 m/s 22.9 mm 18.9° 1013.3 hPa 5.2 m/s 22.9 mm
 04:35     21:55    Daglengte: 17:20 Maandag 04 Jul
02:00 14.1° 1012.8 hPa 4.7 m/s 22.9 mm 14.1° 1012.8 hPa 4.7 m/s 22.9 mm
08:00 14.6° 1010.6 hPa 6.0 m/s 23.4 mm 14.6° 1010.6 hPa 6.0 m/s 23.4 mm
14:00 18.4° 1009.0 hPa 8.5 m/s 25.4 mm 18.4° 1009.0 hPa 8.5 m/s 25.4 mm
20:00 17.2° 1010.5 hPa 7.9 m/s 26.4 mm 17.2° 1010.5 hPa 7.9 m/s 26.4 mm
 04:36     21:54    Daglengte: 17:18 Dinsdag 05 Jul
02:00 14.8° 1011.8 hPa 8.0 m/s 26.6 mm 14.8° 1011.8 hPa 8.0 m/s 26.6 mm
08:00 15.3° 1012.5 hPa 8.6 m/s 26.9 mm 15.3° 1012.5 hPa 8.6 m/s 26.9 mm
14:00 17.9° 1014.8 hPa 8.2 m/s 27.2 mm 17.9° 1014.8 hPa 8.2 m/s 27.2 mm
20:00 17.7° 1015.4 hPa 7.3 m/s 27.4 mm 17.7° 1015.4 hPa 7.3 m/s 27.4 mm
 04:37     21:53    Daglengte: 17:16 Woensdag 06 Jul
02:00 15.5° 1016.5 hPa 3.4 m/s 0.3 mm
08:00 16.5° 1016.5 hPa 3.4 m/s 0.2 mm
14:00 19.4° 1016.7 hPa 3.5 m/s 0.5 mm
20:00 18.8° 1015.9 hPa 2.7 m/s 0.4 mm
 04:38     21:53    Daglengte: 17:15 Donderdag 07 Jul
02:00 16.0° 1015.9 hPa 2.3 m/s 0.2 mm
08:00 16.5° 1015.5 hPa 1.9 m/s 0.3 mm
14:00 19.5° 1015.6 hPa 2.5 m/s 0.6 mm
20:00 18.8° 1015.0 hPa 2.0 m/s 0.8 mm
 04:40     21:52    Daglengte: 17:12 Vrijdag 08 Jul
02:00 15.6° 1015.2 hPa 1.7 m/s 0.8 mm
08:00 16.5° 1014.8 hPa 2.6 m/s 0.9 mm
14:00 19.3° 1014.8 hPa 2.8 m/s 0.3 mm
20:00 18.5° 1014.4 hPa 2.7 m/s 0.8 mm
 04:41     21:51    Daglengte: 17:10 Zaterdag 09 Jul
02:00 15.5° 1014.6 hPa 3.1 m/s 0.6 mm
08:00 16.5° 1014.5 hPa 2.9 m/s 0.3 mm
14:00 19.6° 1014.1 hPa 3.9 m/s 0.6 mm
20:00 18.6° 1013.3 hPa 2.7 m/s 0.0 mm
 04:42     21:50    Daglengte: 17:08 Zondag 10 Jul
02:00 15.7° 1013.1 hPa 2.2 m/s 0.3 mm
08:00 16.7° 1012.4 hPa 2.6 m/s 0.3 mm
14:00 19.1° 1012.2 hPa 3.2 m/s 0.0 mm
20:00 18.4° 1011.8 hPa 2.9 m/s 0.8 mm
 04:43     21:49    Daglengte: 17:06 Maandag 11 Jul
02:00 15.7° 1012.0 hPa 3.6 m/s 0.7 mm
FMI Hirlam - 7.5 km EWN WRFDA - 12 km DWD ICON - 7 km GFS - 25 km Basiskaart






























































Updatetijd (Europe/Amsterdam) Resolutie Lengte Stap
FMI Hirlam 01:45, 07:45, 13:45, 19:45 7.5 km 49h 1h
EWN WRFDA 04:15, 10:15, 16:15, 22:15 12 km 73h 1h
DWD ICON 23:45, 05:45, 11:45, 17:45 7 km 75h 1h
GFS 02:15, 08:15, 14:15, 20:15 25 km 237h 3h
30+ mm
25-30 mm
20-25 mm
15-20 mm
10-15 mm
6-10 mm
4-6 mm
2-4 mm
1-2 mm
0.5-1 mm
0.2-0.5 mm
0.1-0.2 mm
30+ mm
25-30 mm
20-25 mm
15-20 mm
10-15 mm
6-10 mm
4-6 mm
2-4 mm
1-2 mm
0.5-1 mm
0.2-0.5 mm
0.1-0.2 mm
Sneeuwval
Natte sneeuw
Hagel
Vorst
30+ mm
25-30 mm
20-25 mm
15-20 mm
10-15 mm
6-10 mm
4-6 mm
2-4 mm
1-2 mm
0.5-1 mm
0.2-0.5 mm
0.1-0.2 mm
Sneeuwval
Natte sneeuw
Hagel
Vorst
Onweer
50 mm
40 mm
30 mm
26 mm
22 mm
18 mm
14 mm
10 mm
9 mm
8 mm
7 mm
6 mm
5 mm
4.5 mm
4 mm
3.5 mm
3 mm
2.5 mm
2 mm
1.5 mm
1 mm
0.8 mm
0.6 mm
0.4 mm
0.2 mm
0.05 mm
35°
30°
25°
20°
15°
10°
-5°
-10°
-15°
-20°
-25°
-30°
-35°
33> m/s
29 m/s
25 m/s
21 m/s
17 m/s
14 m/s
11 m/s
8 m/s
5 m/s
3 m/s
0 m/s
2600 J/kg
2400 J/kg
2200 J/kg
2000 J/kg
1800 J/kg
1600 J/kg
1400 J/kg
1200 J/kg
1000 J/kg
800 J/kg
600 J/kg
400 J/kg
200 J/kg
70 dBZ
65 dBZ
60 dBZ
55 dBZ
50 dBZ
45 dBZ
40 dBZ
35 dBZ
30 dBZ
25 dBZ
20 dBZ
15 dBZ
10 dBZ
5 dBZ
-1 K
-2 K
-3 K
-4 K
-5 K
-6 K